This is the latest recevied weather packets stored in our database for station/object DB0ASF-4. If no packets are shown the sender has not sent any weather packets the latest 10 day(s).
| Time | Temp. | Humidity | Pressure | Rain* | Wind** | Luminosity | Snow |
|---|---|---|---|---|---|---|---|
| 1777885157 | 20° C | 51% | 1019.5 hPa | 0 mm | - | - | - |
| 1777884557 | 19.44° C | 53% | 1019.5 hPa | 0 mm | - | - | - |
| 1777883957 | 18.89° C | 54% | 1019.7 hPa | 0 mm | - | - | - |
| 1777883357 | 18.33° C | 55% | 1019.5 hPa | 0 mm | - | - | - |
| 1777882757 | 17.78° C | 56% | 1019.5 hPa | 0 mm | - | - | - |
| 1777882157 | 17.78° C | 56% | 1019.5 hPa | 0 mm | - | - | - |
| 1777881557 | 17.78° C | 57% | 1019.5 hPa | 0 mm | - | - | - |
| 1777880957 | 17.22° C | 59% | 1019.5 hPa | 0 mm | - | - | - |
| 1777880357 | 16.67° C | 62% | 1019.5 hPa | 0 mm | - | - | - |
| 1777879757 | 15.56° C | 62% | 1019.4 hPa | 0 mm | - | - | - |
| 1777879157 | 15.56° C | 64% | 1019.4 hPa | 0 mm | - | - | - |
| 1777878557 | 15° C | 65% | 1019.4 hPa | 0 mm | - | - | - |
| 1777877957 | 14.44° C | 67% | 1019.2 hPa | 0 mm | - | - | - |
| 1777877357 | 13.89° C | 68% | 1019.4 hPa | 0 mm | - | - | - |
| 1777876757 | 13.89° C | 70% | 1019.2 hPa | 0 mm | - | - | - |
| 1777876157 | 13.33° C | 72% | 1019.2 hPa | 0 mm | - | - | - |
| 1777875557 | 12.78° C | 73% | 1019.4 hPa | 0 mm | - | - | - |
| 1777874957 | 12.22° C | 74% | 1019.2 hPa | 0 mm | - | - | - |
| 1777874357 | 11.67° C | 75% | 1019.2 hPa | 0 mm | - | - | - |
| 1777873757 | 11.67° C | 76% | 1019.2 hPa | 0 mm | - | - | - |
| 1777873157 | 11.11° C | 76% | 1019.2 hPa | 0 mm | - | - | - |
| 1777872557 | 11.11° C | 75% | 1019.2 hPa | 0 mm | - | - | - |
| 1777871957 | 10.56° C | 75% | 1019.2 hPa | 0 mm | - | - | - |
| 1777871357 | 10.56° C | 75% | 1019 hPa | 0 mm | - | - | - |
| 1777870757 | 10° C | 75% | 1019.2 hPa | 0 mm | - | - | - |
* Rain latest hour (hover to see other rain measurements)
** Current wind speed in m/s (hover to see current wind gust speed)